Simultaneous Nadir Overpasses (SNOs) Predictions

Prediction of SNOs between GOES-17 and NOAA-20 Satellite Orbit:

Table of predicted SNOs for the next 14.0 days since TLE Epoch: 6/3/2023
Index Date Time (GOES-17) GOES-17 Lat,Lon NOAA-20 Lat,Lon Distance(km) Time Diff (sec)
1 06/03/2023 08:12:16 0.00,-104.72 -0.59,-101.99 311.04 80
2 06/04/2023 20:34:13 -0.01,-104.71 -0.58,-107.29 293.88 80
3 06/05/2023 20:18:07 -0.01,-104.71 0.40,-102.75 222.78 80
4 06/07/2023 08:39:54 0.01,-104.71 0.76,-108.01 376.38 80
5 06/08/2023 08:18:30 0.02,-104.71 -0.29,-103.49 139.89 80
6 06/09/2023 20:40:25 -0.02,-104.69 -0.93,-108.78 465.72 80
7 06/10/2023 20:24:20 -0.02,-104.69 0.05,-104.24 51.26 80
8 06/13/2023 08:27:23 0.02,-104.71 0.05,-104.97 30.14 80
9 06/14/2023 08:05:57 0.02,-104.70 -0.94,-100.43 486.74 80
10 06/15/2023 20:27:52 -0.03,-104.69 -0.27,-105.73 118.57 80
11 06/16/2023 20:11:47 -0.03,-104.69 0.73,-101.19 398.49 80
